Location: Elmsmere
(40.9284°N, 73.8207°W)
Time: 22:31:52
(UTC+00:00)

STARLINK-2701 - Pass Details

Date: 26 June 2021
Orbit: 546 x 548 km, 53.1° (Epoch: 31 July)

Event Time Altitude Azimuth Distance (km) Brightness Sun altitude
Exits shadow 06:51:56 48° 151° (SSE) 720 3.9 -20.5°
Maximum altitude 06:52:14 49° 135° (SE) 709 4.0 -20.5°
Drops below altitude 10° 06:56:13 10° 61° (ENE) 1,819 7.1 -20.1°
Enters shadow 07:52:30 -70° 234° (SW) 12,570 10.4 -14.1°
